QPF
0.00 0.00 0.00 0.00 0.00 0.00 0.00 0.00 0.00 0.00 0.00 0.00 0.00 0.00 0.00 0.00 0.00 0.00 0.00 0.00 0.00 0.00 0.00 0.00 0.00 0.00 0.00 0.00 0.00 0.00 0.00 0.00 0.00 0.00 0.00 0.00 0.00 0.00 0.00 0.00 0.00 0.00 0.00 0.00 0.00 0.00 0.00 0.00 0.00 0.00 0.01 0.01 0.01 0.01 0.01 0.01 0.00 0.00 0.00 0.01 0.00 0.00 0.00
0.03 0.00 0.00 0.00 0.00 0.00 0.00 0.00 0.00 0.00 0.00 0.00 0.00 0.00 0.00 0.00 0.00 0.00 0.00 0.00 0.00 0.00 0.00 0.00 0.00 0.00 0.00 0.00 0.00 0.00 0.00 0.00 0.00 0.00 0.00 0.00 0.00 0.00 0.00 0.00 0.00 0.00 0.00 0.00 0.00 0.00 0.00 0.00 0.00 0.00 0.01 0.00 0.00 0.01 0.01 0.01 0.00 0.00 0.00 0.00 0.00 0.00 0.00
0.03 0.00 0.00 0.00 0.00 0.00 0.00 0.00 0.00 0.00 0.00 0.00 0.00 0.00 0.00 0.00 0.00 0.00 0.00 0.00 0.00 0.00 0.00 0.00 0.00 0.00 0.00 0.00 0.00 0.00 0.00 0.00 0.00 0.00 0.00 0.00 0.00 0.00 0.00 0.00 0.00 0.00 0.00 0.00 0.00 0.00 0.00 0.00 0.00 0.00 0.00 0.00 0.00 0.01 0.02 0.01 0.01 0.01 0.00 0.00 0.00 0.00 0.00
0.03 0.01 0.00 0.00 0.00 0.00 0.00 0.00 0.00 0.00 0.00 0.00 0.00 0.00 0.00 0.00 0.00 0.00 0.00 0.00 0.00 0.00 0.00 0.00 0.00 0.00 0.00 0.00 0.00 0.00 0.00 0.00 0.00 0.00 0.00 0.00 0.00 0.00 0.00 0.00 0.00 0.00 0.00 0.00 0.00 0.00 0.00 0.00 0.00 0.00 0.00 0.00 0.00 0.00 0.00 0.01 0.00 0.01 0.01 0.01 0.01 0.00 0.00
0.05 0.02 0.01 0.00 0.00 0.00 0.00 0.00 0.00 0.00 0.00 0.00 0.00 0.00 0.00 0.00 0.00 0.00 0.00 0.00 0.00 0.00 0.00 0.00 0.00 0.00 0.00 0.00 0.00 0.00 0.00 0.00 0.00 0.00 0.00 0.00 0.00 0.00 0.00 0.00 0.00 0.00 0.00 0.00 0.00 0.00 0.00 0.00 0.00 0.00 0.00 0.00 0.00 0.00 0.00 0.00 0.00 0.01 0.01 0.01 0.01 0.00 0.00
0.15 0.05 0.02 0.01 0.00 0.00 0.00 0.00 0.00 0.00 0.00 0.00 0.00 0.00 0.00 0.00 0.00 0.00 0.00 0.00 0.00 0.00 0.00 0.00 0.00 0.00 0.00 0.00 0.00 0.00 0.00 0.00 0.00 0.00 0.00 0.00 0.00 0.00 0.00 0.00 0.00 0.00 0.00 0.00 0.00 0.00 0.00 0.00 0.00 0.00 0.00 0.00 0.00 0.00 0.00 0.00 0.00 0.00 0.00 0.00 0.00 0.00 0.00
0.08 0.15 0.05 0.04 0.01 0.00 0.00 0.00 0.00 0.00 0.00 0.00 0.00 0.00 0.00 0.00 0.00 0.00 0.00 0.00 0.00 0.00 0.00 0.00 0.00 0.00 0.00 0.00 0.00 0.00 0.00 0.00 0.00 0.00 0.00 0.00 0.00 0.00 0.00 0.00 0.00 0.00 0.00 0.00 0.00 0.00 0.00 0.00 0.00 0.00 0.00 0.00 0.00 0.00 0.00 0.00 0.00 0.00 0.00 0.00 0.00 0.00 0.00
0.01 0.08 0.13 0.09 0.16 0.20 0.02 0.07 0.00 0.00 0.00 0.00 0.00 0.00 0.00 0.00 0.00 0.00 0.00 0.00 0.00 0.00 0.00 0.00 0.00 0.00 0.00 0.00 0.00 0.00 0.00 0.00 0.00 0.00 0.00 0.00 0.00 0.00 0.00 0.00 0.00 0.00 0.00 0.00 0.00 0.00 0.00 0.00 0.00 0.00 0.00 0.00 0.00 0.00 0.00 0.01 0.01 0.00 0.00 0.00 0.00 0.00 0.00
0.00 0.03 0.18 0.17 0.10 0.18 0.20 0.20 0.18 0.00 0.00 0.00 0.00 0.00 0.00 0.00 0.00 0.00 0.00 0.00 0.00 0.00 0.00 0.00 0.00 0.00 0.00 0.00 0.00 0.00 0.00 0.00 0.00 0.00 0.00 0.00 0.00 0.00 0.00 0.00 0.00 0.00 0.00 0.00 0.00 0.00 0.00 0.00 0.00 0.00 0.00 0.00 0.00 0.00 0.00 0.01 0.01 0.00 0.00 0.00 0.00 0.00 0.00
0.00 0.00 0.04 0.12 0.17 0.13 0.16 0.05 0.21 0.18 0.00 0.02 0.00 0.00 0.00 0.00 0.00 0.00 0.00 0.00 0.00 0.00 0.00 0.00 0.00 0.00 0.00 0.00 0.00 0.00 0.00 0.00 0.00 0.00 0.00 0.00 0.00 0.00 0.00 0.00 0.00 0.00 0.00 0.00 0.00 0.00 0.00 0.00 0.00 0.00 0.00 0.00 0.00 0.00 0.00 0.01 0.01 0.00 0.00 0.00 0.00 0.00 0.00
0.00 0.00 0.01 0.07 0.17 0.19 0.15 0.11 0.09 0.11 0.06 0.10 0.15 0.04 0.00 0.00 0.00 0.00 0.00 0.00 0.00 0.00 0.00 0.01 0.01 0.02 0.01 0.01 0.00 0.00 0.00 0.00 0.00 0.00 0.00 0.00 0.00 0.00 0.00 0.00 0.00 0.00 0.00 0.00 0.00 0.00 0.00 0.00 0.00 0.00 0.00 0.00 0.00 0.00 0.00 0.00 0.00 0.00 0.00 0.00 0.00 0.00 0.00
0.00 0.01 0.00 0.01 0.08 0.18 0.21 0.18 0.15 0.13 0.11 0.05 0.15 0.24 0.16 0.07 0.01 0.01 0.06 0.02 0.00 0.00 0.02 0.02 0.01 0.01 0.01 0.04 0.01 0.03 0.02 0.00 0.00 0.00 0.00 0.00 0.00 0.00 0.00 0.00 0.00 0.00 0.00 0.00 0.00 0.00 0.00 0.00 0.00 0.00 0.00 0.00 0.00 0.00 0.00 0.00 0.00 0.00 0.00 0.00 0.00 0.00 0.00
0.01 0.01 0.01 0.01 0.03 0.06 0.12 0.18 0.24 0.20 0.17 0.10 0.05 0.10 0.12 0.05 0.10 0.09 0.01 0.01 0.02 0.07 0.09 0.20 0.01 0.00 0.01 0.05 0.01 0.02 0.03 0.01 0.00 0.00 0.00 0.00 0.01 0.00 0.00 0.00 0.00 0.00 0.00 0.00 0.00 0.00 0.00 0.00 0.00 0.00 0.00 0.00 0.00 0.00 0.00 0.00 0.00 0.00 0.00 0.00 0.00 0.00 0.00
0.01 0.02 0.02 0.01 0.02 0.03 0.04 0.32 0.15 0.11 0.12 0.19 0.16 0.05 0.10 0.18 0.15 0.05 0.06 0.02 0.02 0.03 0.03 0.00 0.02 0.01 0.01 0.02 0.02 0.06 0.05 0.03 0.01 0.00 0.01 0.01 0.02 0.01 0.00 0.00 0.00 0.00 0.00 0.00 0.00 0.00 0.00 0.00 0.00 0.00 0.00 0.00 0.00 0.00 0.00 0.00 0.00 0.00 0.00 0.00 0.00 0.00 0.00
0.00 0.00 0.01 0.01 0.01 0.07 0.57 0.07 0.06 0.07 0.07 0.07 0.19 0.25 0.22 0.20 0.15 0.17 0.10 0.06 0.05 0.02 0.02 0.00 0.00 0.01 0.03 0.03 0.04 0.04 0.04 0.04 0.03 0.03 0.02 0.03 0.14 0.02 0.01 0.00 0.00 0.00 0.00 0.00 0.00 0.00 0.00 0.00 0.00 0.00 0.00 0.00 0.00 0.00 0.00 0.00 0.00 0.00 0.00 0.00 0.00 0.00 0.00
0.01 0.01 0.01 0.05 0.15 0.20 0.06 0.04 0.04 0.04 0.04 0.03 0.03 0.08 0.24 0.23 0.21 0.14 0.10 0.08 0.05 0.03 0.03 0.01 0.02 0.04 0.01 0.01 0.02 0.04 0.08 0.10 0.09 0.08 0.08 0.08 0.08 0.06 0.03 0.00 0.00 0.01 0.00 0.00 0.00 0.00 0.00 0.00 0.00 0.00 0.00 0.00 0.00 0.00 0.00 0.00 0.00 0.00 0.00 0.00 0.00 0.00 0.00
0.01 0.08 0.17 0.03 0.13 0.02 0.00 0.00 0.01 0.02 0.01 0.01 0.02 0.14 0.23 0.32 0.50 0.39 0.29 0.08 0.03 0.03 0.02 0.02 0.02 0.01 0.01 0.03 0.03 0.02 0.04 0.08 0.09 0.09 0.09 0.13 0.17 0.18 0.14 0.08 0.03 0.00 0.00 0.00 0.00 0.00 0.00 0.00 0.00 0.00 0.00 0.00 0.00 0.00 0.00 0.00 0.00 0.00 0.00 0.00 0.00 0.00 0.00
0.01 0.14 0.07 0.10 0.01 0.00 0.00 0.00 0.01 0.01 0.01 0.01 0.01 0.02 0.04 0.06 0.06 0.06 0.07 0.07 0.08 0.10 0.06 0.04 0.05 0.05 0.05 0.07 0.06 0.06 0.06 0.06 0.08 0.07 0.05 0.05 0.09 0.14 0.17 0.16 0.11 0.05 0.01 0.00 0.00 0.00 0.00 0.01 0.00 0.00 0.00 0.00 0.00 0.00 0.00 0.00 0.00 0.00 0.00 0.00 0.00 0.00 0.00
0.03 0.05 0.03 0.00 0.00 0.00 0.00 0.00 0.00 0.01 0.00 0.00 0.00 0.00 0.00 0.02 0.03 0.04 0.06 0.06 0.08 0.10 0.15 0.13 0.16 0.12 0.07 0.04 0.03 0.03 0.04 0.04 0.06 0.12 0.11 0.15 0.09 0.08 0.11 0.12 0.10 0.08 0.05 0.02 0.00 0.00 0.00 0.00 0.00 0.00 0.00 0.00 0.00 0.00 0.00 0.00 0.00 0.00 0.00 0.00 0.00 0.00 0.00
0.01 0.00 0.00 0.00 0.00 0.00 0.00 0.00 0.00 0.00 0.00 0.00 0.00 0.00 0.00 0.00 0.01 0.01 0.00 0.02 0.02 0.03 0.08 0.05 0.15 0.13 0.16 0.07 0.08 0.06 0.06 0.06 0.06 0.18 0.06 0.05 0.09 0.12 0.15 0.15 0.12 0.13 0.09 0.04 0.02 0.01 0.01 0.01 0.01 0.01 0.01 0.01 0.00 0.00 0.01 0.00 0.00 0.00 0.00 0.00 0.00 0.00 0.00
0.00 0.01 0.00 0.00 0.00 0.00 0.00 0.00 0.00 0.00 0.00 0.00 0.00 0.00 0.00 0.00 0.00 0.00 0.01 0.00 0.00 0.01 0.01 0.00 0.01 0.04 0.05 0.15 0.12 0.08 0.14 0.29 0.19 0.03 0.03 0.09 0.18 0.21 0.25 0.24 0.18 0.14 0.14 0.08 0.06 0.05 0.01 0.01 0.01 0.01 0.00 0.00 0.00 0.09 0.00 0.00 0.00 0.00 0.00 0.00 0.00 0.00 0.00
0.00 0.00 0.00 0.00 0.00 0.00 0.00 0.00 0.00 0.00 0.00 0.00 0.00 0.00 0.01 0.04 0.03 0.02 0.01 0.01 0.00 0.00 0.00 0.00 0.01 0.01 0.02 0.02 0.02 0.03 0.02 0.04 0.03 0.02 0.05 0.24 0.17 0.13 0.30 0.35 0.24 0.12 0.14 0.09 0.06 0.03 0.01 0.01 0.00 0.01 0.01 0.01 0.00 0.06 0.04 0.00 0.00 0.00 0.00 0.00 0.00 0.00 0.00
0.00 0.00 0.00 0.00 0.00 0.00 0.00 0.00 0.00 0.00 0.00 0.00 0.01 0.00 0.00 0.00 0.00 0.29 0.47 0.31 0.03 0.01 0.01 0.02 0.02 0.03 0.03 0.02 0.03 0.07 0.11 0.09 0.05 0.23 0.27 0.26 0.28 0.19 0.18 0.28 0.20 0.22 0.17 0.08 0.05 0.03 0.02 0.01 0.01 0.01 0.01 0.01 0.01 0.02 0.05 0.01 0.00 0.00 0.00 0.00 0.00 0.00 0.00
0.00 0.00 0.00 0.00 0.00 0.00 0.00 0.00 0.00 0.00 0.00 0.00 0.00 0.00 0.00 0.00 0.01 0.05 0.03 0.05 0.09 0.09 0.04 0.19 0.00 0.01 0.03 0.03 0.04 0.02 0.04 0.03 0.02 0.01 0.02 0.23 0.59 0.36 0.29 0.43 0.28 0.39 0.33 0.09 0.05 0.04 0.03 0.01 0.00 0.00 0.00 0.00 0.00 0.02 0.10 0.04 0.00 0.00 0.00 0.00 0.00 0.00 0.01
0.00 0.00 0.00 0.00 0.00 0.00 0.00 0.00 0.00 0.00 0.00 0.00 0.00 0.00 0.00 0.00 0.00 0.00 0.02 0.03 0.04 0.02 0.04 0.08 0.02 0.01 0.02 0.05 0.14 0.07 0.01 0.04 0.00 0.01 0.15 0.09 0.04 0.17 0.32 0.33 0.36 0.44 0.35 0.26 0.19 0.12 0.09 0.08 0.03 0.02 0.01 0.01 0.01 0.00 0.00 0.00 0.00 0.00 0.00 0.00 0.00 0.00 0.00
0.00 0.00 0.00 0.00 0.00 0.00 0.00 0.00 0.00 0.00 0.00 0.00 0.00 0.00 0.00 0.00 0.00 0.00 0.01 0.13 0.10 0.03 0.07 0.16 0.03 0.13 0.40 0.60 0.39 0.23 0.13 0.00 0.01 0.03 0.01 0.10 0.00 0.13 0.08 0.04 0.08 0.46 0.33 0.26 0.27 0.37 0.30 0.14 0.05 0.01 0.00 0.00 0.00 0.00 0.00 0.00 0.00 0.00 0.00 0.00 0.00 0.00 0.00
0.09 0.02 0.01 0.00 0.00 0.00 0.00 0.00 0.00 0.00 0.00 0.00 0.00 0.00 0.00 0.00 0.00 0.00 0.00 0.00 0.00 0.00 0.01 0.05 0.04 0.12 0.13 0.04 0.00 0.00 0.00 0.03 0.08 0.02 0.01 0.00 0.05 0.01 0.06 0.01 0.00 0.01 0.10 0.17 0.05 0.13 0.24 0.75 0.16 0.00 0.00 0.00 0.00 0.00 0.00 0.00 0.00 0.00 0.00 0.00 0.00 0.00 0.00
0.08 0.02 0.03 0.02 0.03 0.00 0.00 0.00 0.00 0.00 0.00 0.00 0.00 0.00 0.00 0.00 0.00 0.00 0.00 0.00 0.00 0.00 0.00 0.00 0.00 0.03 0.03 0.02 0.00 0.00 0.00 0.02 0.02 0.00 0.18 0.02 0.00 0.00 0.00 0.00 0.00 0.00 0.00 0.03 0.00 0.06 0.08 0.51 0.04 0.00 0.00 0.00 0.00 0.00 0.00 0.00 0.00 0.00 0.00 0.00 0.00 0.00 0.00
0.00 0.02 0.05 0.13 0.11 0.05 0.01 0.00 0.00 0.00 0.00 0.00 0.00 0.00 0.00 0.00 0.00 0.00 0.00 0.00 0.00 0.00 0.00 0.00 0.00 0.00 0.02 0.02 0.02 0.02 0.00 0.00 0.00 0.04 0.03 0.02 0.04 0.00 0.02 0.00 0.01 0.02 0.01 0.01 0.02 0.01 0.03 0.06 0.00 0.00 0.00 0.00 0.00 0.00 0.00 0.00 0.00 0.00 0.00 0.00 0.00 0.00 0.00
0.00 0.00 0.00 0.00 0.01 0.09 0.03 0.03 0.00 0.00 0.00 0.00 0.00 0.00 0.00 0.00 0.00 0.00 0.00 0.00 0.00 0.00 0.00 0.00 0.00 0.00 0.00 0.00 0.03 0.02 0.03 0.01 0.01 0.08 0.04 0.02 0.00 0.00 0.00 0.00 0.00 0.00 0.00 0.00 0.00 0.00 0.00 0.00 0.00 0.00 0.00 0.00 0.00 0.00 0.00 0.00 0.00 0.00 0.00 0.00 0.00 0.00 0.00
0.00 0.00 0.00 0.00 0.00 0.00 0.00 0.00 0.00 0.00 0.00 0.00 0.00 0.00 0.00 0.00 0.00 0.00 0.00 0.00 0.00 0.00 0.00 0.00 0.00 0.00 0.00 0.00 0.00 0.00 0.00 0.00 0.02 0.00 0.00 0.02 0.03 0.02 0.00 0.00 0.00 0.00 0.00 0.00 0.00 0.00 0.00 0.00 0.00 0.00 0.00 0.00 0.00 0.00 0.00 0.00 0.00 0.00 0.00 0.00 0.00 0.00 0.00
0.00 0.00 0.00 0.00 0.00 0.02 0.01 0.01 0.00 0.00 0.00 0.00 0.00 0.00 0.00 0.00 0.00 0.00 0.00 0.00 0.00 0.00 0.00 0.00 0.00 0.00 0.00 0.00 0.00 0.00 0.00 0.00 0.00 0.00 0.00 0.00 0.00 0.01 0.02 0.00 0.00 0.00 0.00 0.00 0.00 0.00 0.00 0.00 0.00 0.00 0.00 0.00 0.00 0.00 0.00 0.00 0.00 0.00 0.00 0.00 0.00 0.00 0.00
0.00 0.00 0.00 0.00 0.00 0.00 0.00 0.00 0.00 0.00 0.00 0.00 0.00 0.00 0.00 0.00 0.00 0.00 0.00 0.00 0.00 0.00 0.00 0.00 0.00 0.00 0.00 0.00 0.00 0.00 0.00 0.00 0.00 0.00 0.00 0.00 0.00 0.00 0.00 0.00 0.00 0.00 0.00 0.00 0.00 0.00 0.00 0.00 0.00 0.00 0.00 0.00 0.00 0.00 0.00 0.00 0.00 0.00 0.00 0.00 0.00 0.00 0.00
0.00 0.00 0.00 0.00 0.00 0.00 0.00 0.00 0.00 0.00 0.00 0.00 0.00 0.00 0.00 0.00 0.00 0.00 0.00 0.00 0.00 0.00 0.00 0.00 0.00 0.00 0.00 0.00 0.00 0.00 0.00 0.00 0.00 0.00 0.00 0.00 0.00 0.00 0.00 0.00 0.00 0.00 0.00 0.00 0.00 0.00 0.00 0.00 0.00 0.00 0.00 0.00 0.00 0.00 0.00 0.00 0.00 0.00 0.00 0.00 0.00 0.00 0.00
0.00 0.00 0.00 0.00 0.00 0.00 0.00 0.00 0.00 0.00 0.00 0.00 0.00 0.00 0.00 0.00 0.00 0.00 0.00 0.00 0.00 0.00 0.00 0.00 0.00 0.00 0.00 0.00 0.00 0.00 0.00 0.00 0.00 0.00 0.00 0.00 0.00 0.00 0.00 0.00 0.00 0.00 0.00 0.00 0.00 0.00 0.00 0.00 0.00 0.00 0.00 0.00 0.00 0.00 0.00 0.00 0.00 0.00 0.00 0.00 0.00 0.00 0.00
0.00 0.00 0.00 0.00 0.00 0.00 0.00 0.00 0.00 0.00 0.00 0.00 0.00 0.00 0.00 0.00 0.00 0.00 0.00 0.00 0.00 0.00 0.00 0.00 0.00 0.00 0.00 0.00 0.00 0.00 0.00 0.00 0.00 0.00 0.00 0.00 0.00 0.00 0.00 0.00 0.00 0.00 0.00 0.00 0.00 0.00 0.00 0.00 0.00 0.00 0.00 0.00 0.00 0.00 0.00 0.00 0.00 0.00 0.00 0.00 0.00 0.00 0.00
0.00 0.00 0.00 0.00 0.00 0.00 0.00 0.00 0.00 0.00 0.00 0.00 0.00 0.00 0.00 0.00 0.00 0.00 0.00 0.00 0.00 0.00 0.00 0.00 0.00 0.00 0.00 0.00 0.00 0.00 0.00 0.00 0.00 0.00 0.00 0.00 0.00 0.00 0.00 0.00 0.00 0.00 0.00 0.00 0.00 0.00 0.00 0.00 0.00 0.00 0.00 0.00 0.00 0.00 0.00 0.00 0.00 0.00 0.00 0.00 0.00 0.00 0.00
0.00 0.00 0.00 0.00 0.00 0.00 0.00 0.03 0.01 0.00 0.00 0.00 0.00 0.00 0.00 0.00 0.00 0.00 0.00 0.00 0.00 0.00 0.00 0.00 0.00 0.00 0.00 0.00 0.00 0.00 0.00 0.00 0.00 0.00 0.00 0.00 0.00 0.00 0.00 0.00 0.00 0.00 0.00 0.00 0.00 0.00 0.00 0.00 0.00 0.00 0.00 0.00 0.00 0.00 0.00 0.00 0.00 0.00 0.00 0.00 0.00 0.00 0.00
MSLP
1015.07 1015.07 1015.19 1015.31 1015.71 1015.95 1016.19 1016.27 1016.39 1016.63 1016.79 1016.95 1017.15 1017.19 1017.43 1017.59 1017.83 1018.15 1018.51 1018.83 1019.19 1019.47 1019.47 1019.59 1019.83 1019.91 1020.19 1020.27 1020.31 1020.35 1020.39 1020.59 1020.71 1020.99 1021.19 1021.19 1021.11 1021.19 1021.43 1021.27 1021.43 1021.63 1021.35 1021.51 1021.51 1021.67 1021.59 1021.51 1021.63 1021.67 1021.75 1021.91 1021.99 1022.07 1022.19 1022.15 1022.23 1022.19 1022.23 1022.31 1022.35 1022.43 1022.43
1015.31 1014.99 1015.03 1015.19 1015.63 1015.75 1015.83 1015.95 1016.15 1016.31 1016.55 1016.71 1016.91 1017.11 1017.27 1017.55 1017.83 1018.23 1018.47 1018.67 1018.91 1019.19 1019.31 1019.47 1019.71 1019.83 1019.95 1020.15 1020.11 1020.31 1020.51 1020.55 1020.63 1020.75 1020.83 1021.03 1021.11 1021.15 1021.07 1021.19 1021.23 1021.51 1021.55 1021.27 1021.31 1021.35 1021.39 1021.51 1021.55 1021.63 1021.75 1021.75 1021.83 1021.91 1021.99 1022.11 1022.19 1022.23 1022.11 1022.23 1022.35 1022.47 1022.39
1015.59 1014.99 1014.95 1015.11 1015.47 1015.59 1015.67 1015.79 1015.95 1016.07 1016.23 1016.43 1016.63 1016.95 1017.23 1017.47 1017.67 1018.03 1018.27 1018.55 1018.87 1018.99 1019.07 1019.23 1019.47 1019.59 1019.71 1019.91 1020.19 1020.35 1020.43 1020.47 1020.59 1020.79 1020.99 1020.91 1021.07 1020.95 1020.83 1020.95 1021.07 1021.11 1021.11 1021.11 1021.27 1021.27 1021.15 1021.31 1021.39 1021.43 1021.55 1021.63 1021.51 1021.83 1021.91 1021.99 1022.11 1022.11 1022.15 1022.27 1022.31 1022.35 1022.55
1016.03 1015.67 1015.15 1014.99 1015.15 1015.23 1015.27 1015.55 1015.79 1015.87 1015.95 1016.11 1016.35 1016.67 1017.03 1017.31 1017.35 1017.63 1017.87 1018.15 1018.59 1018.83 1019.19 1019.07 1019.19 1019.31 1019.51 1019.87 1020.11 1020.27 1020.39 1020.43 1020.39 1020.43 1020.47 1020.43 1020.59 1020.63 1020.79 1020.95 1021.03 1020.79 1021.07 1021.19 1020.95 1020.99 1020.83 1021.07 1021.35 1021.43 1021.55 1021.63 1021.71 1021.59 1021.67 1021.83 1021.83 1021.99 1022.11 1022.23 1022.27 1022.23 1022.39
1015.71 1015.47 1015.19 1015.31 1015.51 1015.47 1015.43 1015.55 1015.71 1015.87 1016.03 1016.07 1016.27 1016.39 1016.67 1016.95 1017.19 1017.47 1017.71 1017.83 1018.15 1018.55 1018.59 1018.71 1018.67 1018.83 1019.07 1019.35 1019.59 1019.75 1020.03 1020.19 1020.35 1020.31 1020.23 1020.15 1020.23 1020.39 1020.71 1020.75 1020.75 1020.87 1020.83 1020.79 1020.83 1021.11 1021.31 1021.31 1021.23 1021.39 1021.51 1021.55 1021.63 1021.59 1021.71 1021.71 1021.75 1021.91 1022.03 1022.15 1022.35 1022.19 1022.15
1015.75 1015.75 1015.67 1015.47 1015.31 1015.43 1015.43 1015.43 1015.55 1015.75 1016.03 1016.31 1016.43 1016.51 1016.59 1016.91 1017.03 1017.47 1017.63 1017.83 1018.07 1018.11 1018.31 1018.47 1018.55 1018.67 1019.07 1019.07 1019.19 1019.39 1019.59 1019.83 1019.99 1020.19 1020.35 1020.31 1020.35 1020.51 1020.59 1020.71 1020.63 1020.67 1020.67 1020.83 1020.63 1020.83 1021.03 1021.15 1021.15 1021.23 1021.35 1021.27 1021.31 1021.35 1021.35 1021.51 1021.51 1021.59 1021.79 1021.95 1022.07 1021.99 1021.87
1015.67 1015.79 1015.75 1015.75 1015.51 1015.35 1015.27 1015.31 1015.43 1015.63 1015.79 1015.99 1016.15 1016.27 1016.51 1016.87 1017.11 1017.27 1017.39 1017.75 1017.99 1018.31 1018.31 1018.43 1018.35 1018.51 1018.79 1018.83 1019.11 1019.27 1019.63 1019.71 1019.87 1020.11 1020.11 1020.23 1020.27 1020.51 1020.43 1020.43 1020.47 1020.43 1020.35 1020.35 1020.71 1020.63 1020.87 1021.03 1021.11 1021.11 1021.15 1021.15 1021.11 1021.15 1021.31 1021.55 1021.59 1021.51 1021.63 1021.91 1022.11 1022.07 1022.11
1015.35 1016.11 1016.31 1016.07 1015.75 1015.43 1015.27 1015.35 1015.39 1015.63 1015.87 1015.87 1016.27 1016.63 1016.95 1016.99 1017.11 1017.31 1017.55 1017.59 1017.91 1017.87 1018.15 1018.27 1018.43 1018.55 1018.71 1018.71 1018.91 1019.19 1019.39 1019.55 1019.51 1019.67 1019.79 1019.99 1020.07 1020.35 1020.35 1020.39 1020.35 1020.35 1020.43 1020.59 1020.51 1020.55 1020.67 1020.87 1020.79 1020.91 1021.03 1021.11 1021.19 1021.27 1021.23 1021.39 1021.59 1021.39 1021.43 1021.79 1021.99 1022.03 1021.71
1014.87 1015.43 1016.19 1016.39 1016.67 1016.75 1016.63 1016.43 1016.35 1016.19 1016.15 1016.23 1016.43 1016.75 1016.95 1017.07 1017.23 1017.39 1017.59 1017.71 1017.91 1018.03 1018.15 1018.07 1018.23 1018.39 1018.63 1018.83 1018.99 1019.19 1019.19 1019.31 1019.47 1019.63 1019.75 1019.83 1019.75 1019.87 1019.91 1019.95 1020.07 1020.03 1020.39 1020.47 1020.27 1020.15 1020.39 1020.51 1020.63 1020.83 1020.99 1021.07 1021.15 1021.35 1021.39 1021.47 1021.39 1021.23 1021.35 1021.55 1021.79 1021.99 1021.79
1014.83 1015.47 1015.83 1016.35 1016.87 1017.19 1017.47 1017.03 1017.23 1017.39 1017.27 1017.03 1016.91 1016.99 1017.07 1017.07 1017.31 1017.47 1017.63 1017.75 1017.87 1018.15 1018.15 1018.23 1018.35 1018.47 1018.71 1018.91 1019.07 1019.15 1019.31 1019.55 1019.51 1019.63 1019.59 1019.67 1019.55 1019.63 1019.55 1019.43 1019.47 1019.59 1019.99 1020.11 1019.99 1020.03 1020.15 1020.23 1020.39 1020.67 1020.99 1021.15 1021.23 1021.31 1021.35 1021.39 1021.35 1021.19 1021.15 1021.39 1021.55 1021.67 1021.83
1014.43 1015.31 1015.91 1016.63 1017.15 1017.23 1017.19 1017.47 1017.87 1017.91 1017.83 1017.75 1017.75 1017.59 1017.51 1017.51 1017.55 1017.67 1017.75 1017.75 1017.91 1018.07 1018.07 1018.35 1018.47 1018.79 1018.99 1019.11 1019.31 1019.31 1019.43 1019.59 1019.63 1019.83 1019.99 1020.03 1019.83 1019.67 1019.39 1019.35 1019.31 1019.35 1019.63 1019.75 1019.87 1019.75 1019.87 1020.23 1020.31 1020.63 1020.91 1021.03 1021.07 1021.11 1021.19 1021.15 1021.19 1021.31 1021.11 1020.99 1020.95 1021.19 1021.27
1014.87 1015.39 1016.03 1016.43 1017.19 1017.55 1017.67 1017.71 1017.79 1017.91 1018.07 1018.11 1018.15 1018.35 1018.23 1018.03 1017.83 1017.91 1018.03 1018.19 1018.07 1018.15 1018.15 1018.35 1018.43 1018.67 1018.95 1019.15 1019.43 1019.59 1019.59 1019.51 1019.47 1019.67 1019.83 1019.95 1019.95 1019.95 1019.71 1019.35 1019.27 1019.27 1019.31 1019.55 1019.83 1019.79 1019.75 1020.07 1020.23 1020.39 1020.71 1020.75 1020.75 1020.75 1020.83 1020.87 1020.95 1021.11 1021.11 1020.91 1020.71 1020.87 1020.99
1015.11 1015.47 1015.83 1016.19 1016.71 1017.11 1017.35 1017.71 1017.95 1018.03 1018.11 1018.07 1018.11 1018.07 1018.19 1018.15 1018.19 1018.23 1018.47 1018.63 1018.47 1018.23 1018.27 1018.35 1018.47 1018.59 1018.83 1019.07 1019.27 1019.51 1019.59 1019.47 1019.39 1019.27 1019.39 1019.59 1019.67 1019.63 1019.59 1019.47 1019.27 1019.19 1019.27 1019.19 1019.51 1019.67 1019.75 1019.75 1020.07 1020.11 1020.27 1020.47 1020.47 1020.51 1020.59 1020.67 1020.67 1020.83 1020.91 1020.91 1020.79 1020.83 1020.95
1015.99 1016.03 1016.19 1016.27 1016.67 1017.11 1017.59 1017.79 1017.83 1018.03 1018.15 1018.35 1018.43 1018.27 1018.19 1018.15 1018.27 1018.43 1018.59 1018.71 1018.63 1018.55 1018.39 1018.35 1018.51 1018.71 1018.83 1018.99 1019.27 1019.39 1019.51 1019.51 1019.39 1019.39 1019.27 1019.27 1019.43 1019.59 1019.59 1019.47 1019.31 1019.27 1019.23 1019.31 1019.55 1019.63 1019.63 1019.63 1019.71 1019.83 1019.95 1020.07 1020.15 1020.19 1020.23 1020.43 1020.55 1020.59 1020.71 1020.67 1020.63 1020.67 1020.79
1017.03 1017.03 1017.07 1017.27 1017.51 1017.83 1017.99 1018.11 1018.07 1018.15 1018.15 1018.19 1018.31 1018.47 1018.47 1018.31 1018.19 1018.23 1018.43 1018.55 1018.67 1018.39 1018.31 1018.23 1018.47 1018.63 1018.83 1019.03 1019.27 1019.39 1019.43 1019.55 1019.67 1019.63 1019.51 1019.51 1019.63 1019.79 1019.79 1019.67 1019.47 1019.39 1019.39 1019.51 1019.67 1019.43 1019.31 1019.31 1019.35 1019.55 1019.79 1019.71 1019.87 1019.95 1019.99 1019.99 1020.15 1020.03 1020.19 1020.51 1020.67 1020.59 1020.63
1017.07 1017.19 1017.55 1017.91 1018.03 1018.31 1018.27 1018.11 1018.19 1018.19 1018.19 1018.31 1018.27 1018.51 1018.75 1018.75 1018.63 1018.59 1018.63 1018.59 1018.35 1018.19 1018.11 1018.23 1018.59 1018.71 1018.87 1019.11 1019.19 1019.27 1019.35 1019.43 1019.63 1019.79 1019.91 1019.95 1019.91 1019.95 1019.99 1019.91 1019.75 1019.59 1019.59 1019.55 1019.55 1019.55 1019.51 1019.43 1019.43 1019.43 1019.67 1019.91 1019.91 1019.95 1019.83 1019.83 1019.59 1019.67 1020.03 1020.19 1020.27 1020.31 1020.27
1017.19 1017.87 1018.19 1017.99 1017.87 1017.67 1017.67 1017.91 1018.11 1018.23 1018.35 1018.39 1018.43 1018.87 1018.79 1018.71 1018.63 1018.63 1018.63 1018.47 1018.27 1018.15 1017.99 1017.99 1018.35 1018.55 1018.71 1018.99 1019.03 1019.23 1019.39 1019.51 1019.63 1019.75 1019.99 1020.03 1020.07 1020.07 1020.11 1020.11 1019.99 1019.95 1019.83 1019.67 1019.63 1019.67 1019.71 1019.79 1019.83 1019.67 1019.47 1019.59 1019.71 1019.79 1019.67 1019.39 1019.79 1020.19 1020.27 1020.51 1020.67 1020.59 1020.47
1017.63 1018.31 1018.19 1018.27 1017.43 1017.55 1017.91 1018.07 1018.27 1018.39 1018.43 1018.51 1018.67 1018.59 1018.51 1018.63 1018.67 1018.71 1018.75 1018.59 1018.47 1018.27 1018.07 1018.23 1018.35 1018.59 1018.67 1018.67 1018.79 1018.99 1019.27 1019.43 1019.47 1019.59 1019.63 1019.71 1019.91 1019.99 1020.11 1020.23 1020.27 1020.23 1020.03 1019.87 1019.79 1019.79 1019.71 1019.83 1019.83 1019.83 1019.63 1019.43 1019.43 1019.47 1019.39 1019.59 1020.63 1020.51 1020.63 1020.71 1020.79 1020.83 1020.55
1017.63 1017.99 1017.59 1017.43 1017.63 1017.79 1017.83 1018.07 1018.31 1018.47 1018.63 1018.79 1018.79 1018.71 1018.55 1018.39 1018.59 1018.83 1018.67 1018.55 1018.39 1018.31 1018.43 1018.43 1018.47 1018.59 1018.71 1018.71 1018.59 1018.71 1018.83 1018.91 1019.15 1019.27 1019.39 1019.47 1019.47 1019.55 1019.79 1020.03 1020.23 1020.31 1020.27 1020.07 1019.75 1019.71 1019.95 1019.95 1019.79 1019.79 1019.75 1019.67 1019.71 1019.63 1019.35 1019.83 1020.71 1020.67 1020.75 1020.87 1020.91 1020.91 1020.83
1016.71 1016.79 1016.95 1017.03 1017.19 1017.63 1018.11 1018.39 1018.63 1018.79 1018.87 1018.87 1018.87 1018.99 1019.07 1018.91 1018.95 1018.95 1018.87 1018.91 1018.87 1019.03 1019.15 1019.15 1019.23 1019.19 1019.15 1018.95 1018.87 1018.75 1018.59 1018.67 1018.87 1019.07 1019.19 1019.23 1019.35 1019.55 1019.67 1019.83 1019.95 1020.03 1019.99 1019.87 1019.83 1019.99 1020.03 1019.83 1019.83 1019.83 1019.87 1019.83 1019.83 1019.87 1019.59 1020.35 1020.95 1021.03 1021.11 1021.03 1021.03 1020.95 1020.91
1016.87 1017.03 1017.27 1017.31 1017.35 1017.83 1018.51 1018.79 1018.91 1019.07 1019.11 1019.11 1019.19 1019.23 1019.23 1019.39 1019.35 1019.35 1019.31 1019.31 1019.43 1019.51 1019.63 1019.67 1019.75 1019.79 1019.75 1019.67 1019.47 1019.43 1019.43 1019.43 1019.43 1019.43 1019.43 1019.35 1019.43 1019.59 1019.71 1019.75 1019.75 1019.83 1019.99 1019.99 1020.03 1020.19 1020.15 1020.03 1020.11 1019.99 1019.91 1019.91 1019.87 1020.07 1020.03 1020.83 1021.31 1021.23 1021.19 1021.03 1020.95 1020.83 1020.83
1016.91 1016.95 1017.39 1017.55 1017.75 1018.27 1018.43 1018.55 1018.91 1019.23 1019.59 1019.43 1019.43 1019.55 1019.55 1019.79 1019.67 1019.67 1019.83 1019.63 1019.71 1019.87 1019.99 1020.11 1020.23 1020.31 1020.19 1020.15 1019.99 1019.91 1019.87 1019.91 1020.03 1020.03 1020.11 1019.99 1019.67 1019.67 1019.91 1019.99 1019.95 1019.95 1019.83 1019.99 1020.07 1019.91 1019.83 1019.99 1020.03 1020.19 1020.11 1019.87 1019.79 1020.27 1021.27 1021.43 1021.67 1021.51 1021.27 1021.03 1020.87 1020.79 1020.43
1016.99 1017.67 1017.71 1017.75 1017.75 1018.11 1018.19 1018.43 1018.83 1019.19 1019.47 1019.79 1019.95 1019.95 1020.07 1020.11 1020.11 1020.39 1020.47 1020.31 1020.15 1020.31 1020.51 1020.55 1020.75 1020.83 1020.75 1020.67 1020.55 1020.43 1020.31 1020.27 1020.35 1020.51 1020.51 1020.51 1020.55 1020.51 1020.35 1020.19 1020.23 1020.31 1020.19 1020.27 1020.23 1020.27 1020.19 1020.19 1020.15 1020.03 1019.99 1020.07 1020.11 1020.23 1021.07 1021.39 1021.87 1021.83 1021.59 1021.23 1020.87 1020.51 1020.03
1017.07 1017.23 1017.67 1017.95 1018.07 1018.23 1018.59 1018.91 1019.03 1019.11 1019.39 1019.91 1020.23 1020.35 1020.35 1020.35 1020.43 1020.59 1020.79 1020.83 1020.67 1020.75 1020.91 1020.87 1020.91 1020.99 1020.99 1020.95 1020.75 1020.59 1020.47 1020.35 1020.19 1020.43 1020.67 1020.87 1021.11 1021.03 1020.87 1020.71 1020.59 1020.63 1020.59 1020.79 1020.59 1020.39 1020.35 1020.43 1020.55 1020.55 1020.47 1020.51 1020.67 1020.63 1021.27 1021.71 1022.15 1022.11 1021.83 1021.47 1021.07 1020.63 1020.19
1017.99 1018.11 1018.27 1018.35 1018.39 1018.67 1018.79 1019.11 1019.31 1019.59 1019.91 1020.27 1020.71 1020.67 1020.51 1020.51 1020.55 1020.71 1021.11 1021.15 1021.27 1020.99 1021.03 1021.27 1021.19 1021.07 1021.15 1021.27 1021.23 1020.95 1020.83 1020.83 1020.83 1020.83 1020.87 1020.91 1021.15 1021.15 1021.27 1021.27 1021.19 1021.03 1020.75 1020.71 1020.87 1020.87 1020.71 1020.71 1020.79 1020.83 1020.83 1020.91 1021.15 1021.19 1021.31 1021.67 1022.11 1022.27 1021.99 1021.63 1021.31 1020.91 1020.19
1018.31 1018.35 1018.31 1018.27 1018.47 1018.67 1019.19 1019.47 1019.71 1020.03 1020.39 1020.63 1020.79 1020.59 1020.59 1020.59 1020.71 1020.99 1021.19 1021.23 1021.27 1021.47 1021.47 1021.71 1021.59 1021.43 1021.47 1021.51 1021.43 1021.39 1021.11 1021.07 1021.39 1021.39 1021.27 1021.15 1021.27 1021.27 1021.31 1021.19 1021.15 1021.19 1020.95 1020.75 1020.87 1020.99 1020.75 1020.87 1021.07 1021.27 1021.15 1020.95 1021.07 1021.35 1021.63 1021.99 1022.27 1022.43 1022.15 1021.87 1021.51 1021.19 1020.59
1018.71 1018.47 1018.47 1018.71 1019.23 1019.15 1019.39 1019.43 1019.51 1019.83 1020.11 1020.39 1020.47 1020.63 1020.71 1020.71 1020.83 1021.07 1021.11 1021.11 1021.27 1021.35 1021.59 1021.87 1021.63 1021.27 1021.31 1021.27 1021.19 1021.15 1021.27 1021.43 1021.55 1021.67 1021.59 1021.39 1021.59 1021.51 1021.51 1021.31 1021.23 1021.27 1021.27 1021.07 1020.91 1021.19 1021.39 1021.39 1021.39 1021.27 1021.03 1020.95 1020.95 1021.15 1021.63 1021.87 1022.11 1022.39 1022.27 1022.11 1021.95 1021.67 1021.27
1019.39 1019.15 1019.23 1019.11 1019.19 1019.23 1019.51 1019.87 1020.27 1020.31 1020.39 1020.39 1020.39 1020.59 1020.83 1020.91 1021.19 1021.27 1021.35 1021.39 1021.47 1021.39 1021.35 1021.63 1021.67 1021.43 1021.35 1021.55 1021.47 1021.35 1021.39 1021.59 1021.63 1021.51 1021.75 1021.67 1021.55 1021.75 1021.71 1021.51 1021.35 1021.31 1021.31 1021.27 1021.27 1021.59 1021.75 1021.91 1021.79 1021.55 1021.27 1021.03 1021.03 1021.39 1021.79 1021.95 1021.99 1022.03 1022.39 1022.39 1022.31 1022.19 1021.99
1019.39 1019.63 1019.91 1019.87 1019.79 1019.39 1019.63 1020.11 1020.31 1020.31 1020.35 1020.35 1020.51 1020.67 1020.83 1021.11 1021.51 1021.67 1021.71 1021.87 1021.79 1021.43 1021.43 1021.47 1021.59 1021.79 1021.99 1021.95 1021.91 1021.87 1021.91 1021.99 1021.87 1021.87 1021.83 1021.91 1021.87 1021.87 1022.03 1021.71 1021.71 1021.83 1021.79 1021.87 1021.87 1021.95 1022.11 1022.11 1021.79 1021.51 1021.31 1021.23 1021.19 1021.23 1021.59 1021.83 1022.11 1022.27 1022.35 1022.59 1022.51 1022.47 1022.35
1018.99 1019.15 1019.47 1019.55 1019.79 1019.67 1019.63 1020.39 1020.47 1020.55 1020.47 1020.51 1020.63 1020.79 1020.99 1021.35 1021.83 1021.99 1022.15 1022.27 1021.87 1021.71 1021.71 1021.71 1021.79 1021.91 1022.07 1022.19 1022.19 1022.11 1022.03 1021.87 1021.87 1021.99 1021.91 1021.99 1021.91 1021.95 1022.03 1022.07 1021.99 1021.91 1021.79 1021.71 1021.71 1021.87 1021.95 1021.87 1021.63 1021.47 1021.43 1021.31 1021.27 1021.31 1021.55 1021.75 1022.07 1022.43 1022.51 1022.59 1022.63 1022.59 1022.55
1019.15 1019.11 1019.11 1019.43 1019.71 1019.87 1020.07 1020.59 1020.95 1020.95 1021.03 1020.99 1021.03 1020.99 1021.11 1021.35 1021.83 1022.11 1022.31 1022.19 1021.99 1021.99 1021.99 1021.99 1021.99 1022.03 1022.07 1022.11 1022.11 1022.11 1022.11 1022.19 1022.03 1021.95 1021.79 1022.11 1022.19 1022.07 1022.03 1022.15 1022.03 1022.15 1021.95 1021.75 1021.71 1021.67 1021.75 1021.71 1021.55 1021.59 1021.59 1021.67 1021.67 1021.71 1021.79 1021.71 1021.63 1021.99 1022.43 1022.59 1022.67 1022.67 1022.67
1019.35 1019.27 1019.35 1019.67 1020.07 1020.31 1020.47 1020.67 1020.87 1021.11 1021.39 1021.47 1021.31 1021.43 1021.51 1021.63 1021.83 1022.27 1022.35 1022.15 1022.11 1022.07 1022.15 1022.19 1022.31 1022.39 1022.43 1022.35 1022.27 1022.19 1022.11 1022.15 1022.07 1022.07 1022.07 1021.95 1021.95 1022.07 1022.19 1022.35 1022.19 1022.15 1022.07 1021.91 1021.91 1021.91 1021.87 1021.75 1021.59 1021.63 1021.67 1021.79 1021.95 1022.11 1022.07 1022.03 1021.95 1021.91 1022.03 1022.27 1022.35 1022.43 1022.55
1019.75 1019.83 1019.87 1019.99 1020.11 1020.27 1020.39 1020.63 1021.11 1021.47 1021.55 1021.71 1021.51 1021.47 1021.67 1021.95 1022.03 1022.23 1022.31 1022.35 1022.27 1022.31 1022.35 1022.39 1022.47 1022.55 1022.55 1022.59 1022.47 1022.43 1022.39 1022.35 1022.23 1022.11 1022.07 1022.11 1021.99 1021.87 1021.95 1022.23 1022.15 1022.19 1022.19 1022.03 1021.95 1021.95 1021.87 1021.75 1021.79 1021.75 1021.83 1022.15 1022.19 1022.19 1022.15 1022.11 1022.07 1022.15 1022.35 1022.47 1022.47 1022.31 1022.23
1019.99 1020.03 1019.99 1020.07 1020.19 1020.27 1020.55 1020.83 1021.23 1021.59 1021.79 1022.03 1021.91 1021.83 1021.91 1022.07 1022.15 1022.19 1022.11 1022.11 1022.07 1022.27 1022.51 1022.59 1022.55 1022.51 1022.55 1022.47 1022.43 1022.39 1022.39 1022.55 1022.79 1022.43 1022.15 1022.23 1022.07 1021.99 1021.95 1021.99 1021.95 1021.95 1022.15 1022.23 1022.23 1022.07 1021.99 1021.91 1022.15 1022.39 1022.35 1022.31 1022.23 1022.23 1022.11 1021.99 1022.15 1022.87 1023.15 1023.19 1023.19 1022.99 1022.71
1019.95 1020.11 1020.31 1020.43 1020.47 1020.51 1020.71 1020.91 1021.23 1021.59 1021.83 1022.15 1022.19 1022.19 1022.23 1022.31 1022.31 1022.27 1022.35 1022.35 1022.39 1022.51 1022.67 1022.83 1022.87 1022.71 1022.51 1022.43 1022.35 1022.63 1022.59 1022.39 1022.47 1022.39 1022.47 1022.51 1022.55 1022.75 1022.95 1022.91 1022.59 1022.43 1022.43 1022.95 1023.15 1023.27 1022.99 1022.55 1022.23 1022.35 1022.31 1022.23 1022.47 1022.59 1022.59 1022.31 1022.79 1023.87 1024.51 1024.39 1024.51 1024.15 1023.59
1019.91 1020.11 1020.23 1020.23 1020.39 1020.55 1020.79 1020.95 1021.11 1021.35 1021.71 1022.07 1022.15 1022.27 1022.39 1022.47 1022.43 1022.27 1022.15 1022.31 1022.47 1022.63 1022.83 1022.91 1022.91 1022.87 1022.75 1022.55 1022.51 1022.55 1022.63 1022.55 1022.63 1022.91 1022.79 1022.55 1022.51 1022.63 1023.15 1023.67 1023.59 1023.51 1023.19 1023.23 1023.87 1024.07 1024.23 1023.99 1023.55 1023.59 1023.15 1022.55 1022.51 1022.91 1022.99 1023.19 1023.91 1024.55 1024.55 1024.59 1024.51 1024.47 1024.43
1019.83 1019.95 1020.11 1020.19 1020.51 1020.79 1020.99 1021.19 1021.35 1021.47 1021.71 1021.87 1022.03 1022.19 1022.39 1022.55 1022.43 1022.39 1022.35 1022.47 1022.55 1022.71 1022.91 1022.91 1022.87 1022.79 1022.83 1022.95 1023.07 1023.23 1023.03 1022.87 1022.91 1023.03 1023.15 1023.11 1023.03 1022.87 1022.79 1022.99 1023.63 1023.83 1023.95 1024.03 1024.15 1024.23 1024.27 1024.31 1024.35 1024.31 1024.23 1023.87 1023.19 1023.23 1023.79 1023.99 1024.23 1024.27 1024.31 1024.31 1024.31 1024.31 1024.23
1019.59 1019.67 1019.87 1020.23 1020.51 1020.83 1021.03 1021.27 1021.43 1021.55 1021.71 1021.75 1021.79 1021.99 1022.19 1022.27 1022.39 1022.51 1022.47 1022.63 1022.71 1022.83 1022.99 1022.99 1022.95 1022.95 1022.83 1022.83 1023.19 1023.47 1023.27 1023.07 1023.27 1023.23 1023.15 1023.11 1023.15 1022.99 1023.03 1022.83 1022.75 1023.39 1023.95 1023.95 1024.07 1024.19 1024.23 1024.31 1024.43 1024.43 1024.35 1024.31 1024.23 1023.71 1023.35 1023.79 1024.15 1024.31 1024.19 1024.07 1023.95 1023.83 1023.79
Thickness
5784 5788 5789 5789 5789 5788 5789 5788 5788 5788 5788 5787 5787 5787 5788 5787 5787 5786 5784 5783 5781 5780 5781 5781 5781 5781 5781 5781 5782 5783 5782 5782 5780 5779 5779 5779 5780 5780 5779 5779 5779 5779 5780 5781 5780 5781 5781 5781 5781 5781 5781 5780 5780 5780 5779 5779 5779 5780 5781 5781 5782 5783 5784
5780 5786 5788 5788 5788 5788 5788 5789 5789 5789 5788 5787 5787 5786 5786 5786 5786 5784 5783 5782 5781 5780 5781 5781 5781 5780 5781 5782 5782 5782 5782 5782 5781 5780 5779 5779 5779 5779 5780 5780 5780 5779 5780 5782 5782 5782 5782 5781 5781 5782 5781 5781 5781 5781 5780 5780 5780 5781 5782 5781 5782 5782 5782
5777 5783 5788 5788 5788 5788 5789 5789 5789 5790 5789 5787 5787 5785 5785 5785 5785 5784 5783 5782 5781 5780 5781 5781 5781 5781 5782 5781 5780 5781 5781 5781 5781 5779 5779 5780 5779 5780 5781 5781 5780 5780 5781 5782 5782 5782 5783 5783 5782 5782 5782 5782 5783 5782 5781 5781 5781 5781 5781 5781 5782 5782 5781
5775 5780 5786 5787 5788 5788 5789 5790 5789 5790 5790 5789 5788 5786 5784 5785 5785 5785 5784 5784 5782 5780 5780 5780 5781 5783 5782 5781 5779 5779 5780 5780 5781 5781 5781 5782 5781 5781 5781 5780 5780 5781 5781 5781 5781 5782 5783 5783 5782 5782 5781 5782 5782 5782 5782 5782 5782 5781 5781 5781 5781 5783 5782
5772 5776 5780 5783 5785 5785 5788 5789 5788 5789 5789 5789 5788 5786 5786 5786 5785 5785 5784 5785 5784 5782 5782 5783 5784 5784 5783 5782 5781 5781 5781 5781 5781 5781 5782 5783 5782 5782 5781 5780 5781 5781 5780 5781 5782 5781 5781 5782 5783 5782 5782 5782 5782 5783 5783 5782 5782 5782 5782 5781 5782 5782 5783
5771 5772 5773 5777 5781 5784 5788 5789 5789 5789 5788 5788 5788 5787 5787 5786 5785 5785 5784 5784 5783 5783 5783 5783 5784 5784 5782 5783 5783 5782 5782 5781 5781 5780 5780 5781 5781 5780 5780 5780 5781 5781 5781 5782 5781 5781 5780 5781 5782 5782 5782 5783 5783 5784 5784 5783 5783 5784 5783 5782 5781 5782 5783
5770 5769 5770 5774 5779 5783 5787 5788 5789 5789 5787 5788 5787 5786 5787 5785 5784 5785 5784 5783 5782 5782 5783 5782 5784 5783 5783 5783 5782 5781 5781 5780 5781 5780 5779 5780 5780 5779 5780 5780 5781 5782 5782 5782 5782 5782 5782 5781 5782 5782 5783 5783 5784 5784 5784 5783 5783 5783 5784 5783 5781 5781 5783
5772 5769 5768 5770 5775 5779 5782 5784 5786 5786 5785 5786 5785 5784 5784 5783 5784 5783 5782 5782 5781 5782 5782 5782 5783 5782 5782 5782 5781 5780 5780 5780 5781 5781 5780 5781 5780 5780 5780 5780 5781 5782 5782 5782 5782 5783 5783 5782 5783 5783 5783 5783 5783 5783 5783 5783 5783 5784 5784 5783 5781 5782 5783
5776 5772 5769 5768 5768 5768 5771 5775 5777 5778 5779 5782 5782 5781 5781 5781 5782 5780 5779 5780 5780 5780 5781 5781 5781 5781 5780 5780 5779 5779 5779 5779 5780 5780 5780 5781 5781 5782 5782 5782 5784 5783 5782 5782 5783 5784 5784 5783 5784 5783 5782 5782 5782 5782 5782 5782 5783 5784 5784 5783 5781 5781 5782
5777 5772 5768 5765 5762 5761 5764 5766 5767 5768 5771 5774 5776 5777 5777 5778 5778 5777 5777 5778 5777 5777 5778 5778 5778 5777 5776 5776 5776 5777 5777 5777 5777 5778 5778 5779 5781 5782 5784 5785 5786 5785 5783 5783 5785 5785 5784 5784 5784 5783 5781 5781 5781 5781 5781 5781 5782 5783 5784 5784 5783 5781 5782
5776 5771 5766 5760 5756 5755 5758 5759 5760 5762 5762 5765 5767 5768 5771 5772 5773 5773 5774 5774 5774 5775 5776 5776 5776 5775 5774 5774 5774 5775 5775 5775 5776 5775 5775 5776 5777 5779 5782 5785 5786 5786 5785 5784 5784 5785 5785 5783 5782 5782 5780 5780 5781 5781 5782 5782 5782 5782 5784 5785 5785 5784 5784
5772 5768 5763 5758 5753 5752 5755 5757 5757 5757 5758 5759 5762 5763 5764 5766 5768 5769 5768 5768 5769 5772 5774 5775 5774 5774 5774 5773 5772 5772 5772 5774 5775 5776 5776 5776 5777 5778 5780 5783 5785 5786 5786 5785 5783 5784 5785 5783 5782 5781 5780 5780 5781 5782 5782 5782 5783 5782 5783 5784 5786 5786 5785
5767 5766 5762 5760 5757 5754 5755 5755 5755 5756 5756 5757 5759 5759 5761 5763 5764 5765 5763 5763 5765 5769 5772 5772 5772 5773 5772 5772 5771 5771 5771 5773 5774 5776 5777 5778 5778 5778 5779 5781 5783 5785 5786 5786 5784 5782 5783 5783 5782 5781 5780 5780 5781 5782 5782 5782 5782 5782 5782 5783 5785 5785 5785
5758 5758 5757 5758 5756 5754 5753 5752 5752 5753 5752 5753 5754 5755 5757 5761 5762 5762 5761 5760 5762 5766 5769 5770 5771 5771 5771 5770 5770 5769 5771 5771 5772 5774 5775 5776 5776 5776 5777 5778 5779 5781 5783 5783 5782 5781 5782 5783 5783 5782 5782 5781 5781 5781 5782 5783 5782 5783 5783 5782 5784 5784 5784
5749 5750 5750 5751 5749 5747 5748 5747 5748 5748 5748 5749 5749 5750 5753 5756 5758 5759 5758 5758 5761 5764 5767 5768 5768 5769 5769 5768 5768 5768 5769 5769 5769 5770 5770 5771 5772 5772 5773 5774 5776 5777 5778 5778 5778 5779 5780 5782 5783 5782 5781 5780 5780 5781 5782 5783 5783 5785 5784 5783 5783 5783 5783
5746 5745 5744 5744 5743 5744 5745 5745 5745 5745 5745 5746 5745 5745 5747 5747 5751 5753 5754 5757 5760 5763 5765 5767 5766 5766 5766 5766 5766 5766 5766 5766 5766 5766 5766 5766 5767 5768 5769 5769 5772 5773 5774 5775 5775 5776 5777 5778 5779 5780 5780 5779 5779 5779 5781 5783 5785 5785 5783 5782 5782 5783 5783
5742 5738 5738 5739 5742 5745 5746 5744 5743 5743 5743 5742 5742 5743 5743 5742 5744 5748 5750 5754 5757 5761 5764 5764 5764 5764 5764 5764 5764 5763 5763 5763 5764 5764 5763 5764 5764 5765 5765 5765 5767 5768 5769 5771 5772 5772 5773 5772 5773 5776 5778 5779 5779 5778 5781 5782 5781 5780 5779 5778 5779 5779 5781
5736 5732 5734 5738 5741 5743 5743 5741 5741 5741 5740 5740 5739 5741 5743 5742 5743 5745 5748 5751 5754 5758 5760 5761 5761 5760 5761 5762 5762 5761 5760 5760 5761 5762 5762 5762 5762 5762 5762 5761 5762 5762 5763 5766 5767 5769 5769 5769 5770 5771 5774 5777 5778 5778 5780 5779 5775 5774 5775 5775 5775 5776 5778
5734 5733 5737 5740 5740 5740 5739 5739 5739 5738 5738 5738 5737 5739 5741 5743 5743 5743 5745 5748 5751 5753 5754 5755 5756 5756 5757 5758 5759 5760 5760 5760 5760 5760 5760 5761 5761 5761 5760 5759 5758 5758 5758 5761 5763 5765 5765 5766 5767 5768 5769 5773 5774 5775 5778 5775 5770 5770 5772 5771 5773 5773 5775
5736 5735 5737 5739 5740 5739 5736 5735 5735 5734 5735 5735 5735 5736 5737 5738 5739 5740 5742 5744 5745 5745 5746 5747 5748 5749 5751 5753 5754 5756 5758 5759 5759 5758 5758 5759 5759 5758 5758 5757 5757 5756 5756 5757 5758 5759 5760 5761 5763 5764 5765 5769 5769 5771 5774 5771 5766 5767 5768 5768 5770 5771 5772
5735 5734 5734 5735 5736 5734 5731 5730 5730 5730 5731 5731 5732 5732 5732 5733 5735 5736 5737 5739 5739 5739 5739 5739 5740 5741 5743 5746 5747 5750 5751 5752 5753 5753 5754 5755 5755 5755 5754 5754 5755 5755 5754 5754 5754 5754 5756 5758 5759 5760 5762 5765 5766 5767 5767 5765 5762 5763 5765 5766 5767 5768 5771
5730 5729 5728 5729 5729 5728 5728 5728 5727 5725 5725 5725 5726 5727 5727 5728 5730 5731 5731 5733 5734 5734 5734 5734 5734 5735 5737 5739 5741 5742 5744 5745 5745 5746 5747 5748 5749 5750 5750 5749 5750 5751 5751 5751 5750 5751 5753 5754 5755 5756 5758 5761 5764 5763 5761 5758 5757 5759 5760 5763 5765 5766 5770
5726 5725 5724 5724 5724 5724 5724 5724 5723 5722 5721 5720 5720 5721 5722 5723 5725 5725 5724 5726 5728 5728 5728 5728 5728 5728 5730 5733 5735 5737 5739 5741 5741 5741 5741 5741 5741 5742 5744 5745 5746 5746 5745 5744 5745 5745 5747 5749 5751 5753 5754 5757 5759 5759 5758 5754 5751 5753 5755 5758 5761 5764 5768
5720 5720 5718 5717 5718 5718 5718 5718 5718 5718 5717 5715 5714 5714 5716 5718 5719 5719 5718 5719 5721 5722 5723 5723 5723 5724 5726 5727 5730 5732 5734 5736 5737 5737 5737 5736 5735 5736 5738 5739 5739 5739 5738 5738 5739 5740 5742 5743 5745 5747 5750 5751 5752 5753 5753 5749 5746 5747 5750 5753 5757 5761 5765
5712 5712 5711 5712 5712 5712 5711 5711 5711 5711 5709 5708 5707 5709 5711 5713 5714 5713 5713 5713 5715 5716 5717 5717 5717 5719 5721 5721 5724 5727 5728 5730 5730 5731 5732 5731 5731 5732 5733 5732 5732 5733 5735 5736 5736 5736 5737 5739 5739 5741 5743 5745 5746 5747 5747 5745 5742 5743 5745 5749 5752 5756 5761
5703 5705 5706 5707 5706 5706 5705 5704 5704 5704 5703 5701 5702 5704 5706 5707 5708 5707 5707 5709 5710 5710 5711 5711 5712 5715 5716 5717 5719 5721 5722 5723 5722 5723 5726 5726 5726 5727 5729 5730 5730 5731 5732 5734 5734 5732 5734 5735 5735 5736 5738 5740 5742 5742 5741 5740 5739 5738 5741 5744 5747 5750 5756
5694 5698 5699 5699 5698 5698 5699 5699 5699 5699 5698 5698 5700 5700 5701 5702 5703 5702 5703 5704 5705 5706 5706 5706 5708 5712 5713 5713 5715 5717 5718 5718 5718 5719 5721 5722 5722 5722 5724 5727 5728 5728 5729 5731 5731 5730 5731 5730 5730 5732 5735 5738 5740 5739 5737 5736 5735 5735 5737 5739 5741 5744 5747
5687 5687 5689 5690 5692 5693 5692 5692 5691 5692 5693 5694 5696 5695 5696 5697 5697 5697 5698 5698 5699 5702 5703 5703 5704 5706 5707 5708 5709 5712 5712 5712 5714 5716 5717 5717 5718 5718 5718 5722 5724 5724 5725 5727 5726 5726 5725 5725 5725 5728 5731 5735 5736 5736 5734 5733 5733 5733 5733 5733 5735 5736 5738
5683 5681 5681 5682 5684 5686 5688 5685 5684 5686 5688 5689 5690 5690 5691 5691 5690 5691 5692 5691 5694 5697 5699 5699 5700 5700 5700 5701 5702 5705 5706 5706 5709 5711 5711 5712 5712 5712 5712 5714 5717 5718 5720 5721 5720 5720 5721 5721 5723 5725 5728 5730 5732 5733 5732 5730 5729 5729 5729 5729 5729 5731 5731
5680 5679 5679 5678 5678 5681 5681 5677 5677 5680 5682 5683 5684 5684 5685 5685 5683 5684 5684 5685 5688 5691 5692 5693 5695 5695 5695 5696 5698 5699 5701 5702 5704 5706 5707 5707 5707 5708 5708 5709 5711 5713 5715 5717 5717 5717 5717 5719 5722 5724 5725 5726 5728 5728 5728 5728 5727 5725 5724 5724 5725 5726 5727
5675 5676 5677 5676 5674 5674 5674 5672 5672 5673 5674 5675 5677 5678 5679 5679 5678 5677 5679 5680 5683 5684 5686 5687 5688 5690 5691 5692 5693 5694 5695 5696 5699 5701 5703 5703 5703 5704 5705 5705 5706 5708 5710 5713 5714 5715 5715 5717 5719 5721 5722 5722 5722 5722 5723 5724 5724 5723 5722 5721 5721 5721 5721
5668 5669 5670 5669 5668 5667 5667 5667 5667 5666 5666 5668 5670 5671 5672 5672 5672 5672 5672 5675 5677 5678 5679 5680 5681 5682 5684 5686 5687 5689 5690 5691 5693 5696 5698 5699 5700 5701 5700 5699 5701 5702 5704 5707 5709 5709 5711 5713 5714 5716 5717 5716 5716 5716 5717 5718 5719 5720 5719 5718 5718 5718 5718
5659 5661 5661 5662 5661 5661 5661 5661 5660 5659 5659 5660 5662 5665 5665 5664 5665 5666 5667 5669 5672 5672 5672 5673 5674 5675 5677 5678 5681 5682 5684 5685 5687 5689 5692 5693 5695 5697 5697 5696 5697 5698 5699 5701 5703 5704 5706 5708 5709 5710 5710 5710 5710 5711 5712 5713 5714 5714 5713 5712 5712 5714 5714
5652 5653 5654 5654 5655 5655 5655 5654 5653 5652 5652 5652 5654 5656 5657 5658 5659 5660 5661 5664 5665 5665 5666 5666 5668 5669 5671 5672 5674 5676 5678 5678 5679 5682 5685 5686 5687 5690 5690 5691 5693 5694 5694 5695 5695 5697 5699 5702 5702 5702 5702 5704 5705 5705 5707 5709 5708 5704 5701 5701 5702 5704 5706
5645 5645 5646 5646 5647 5648 5647 5647 5646 5645 5645 5645 5647 5648 5649 5650 5651 5653 5655 5656 5658 5659 5659 5659 5661 5663 5665 5667 5669 5669 5671 5673 5674 5675 5677 5678 5679 5680 5680 5680 5683 5685 5686 5685 5684 5684 5687 5690 5693 5694 5696 5698 5699 5698 5700 5702 5698 5691 5689 5690 5691 5692 5695
5639 5639 5640 5641 5641 5640 5640 5640 5640 5640 5639 5639 5640 5641 5641 5642 5644 5647 5649 5649 5649 5651 5651 5652 5654 5655 5657 5660 5661 5662 5663 5666 5667 5666 5668 5670 5673 5673 5672 5671 5671 5674 5676 5675 5674 5674 5675 5678 5680 5682 5684 5689 5691 5690 5690 5689 5686 5683 5683 5684 5684 5685 5686
5634 5634 5634 5634 5634 5633 5632 5632 5632 5632 5633 5633 5634 5634 5634 5635 5636 5638 5640 5641 5641 5642 5642 5644 5647 5648 5651 5652 5652 5652 5655 5657 5658 5658 5660 5661 5663 5666 5666 5667 5666 5665 5666 5666 5666 5667 5668 5669 5670 5670 5673 5677 5680 5681 5681 5680 5678 5678 5679 5679 5680 5681 5682
5629 5629 5628 5627 5626 5625 5624 5624 5624 5625 5626 5627 5628 5628 5628 5628 5629 5631 5632 5632 5633 5634 5634 5636 5638 5641 5643 5644 5643 5643 5646 5648 5650 5651 5652 5654 5655 5657 5659 5662 5663 5661 5660 5659 5660 5661 5661 5662 5663 5663 5664 5666 5668 5672 5673 5673 5672 5672 5673 5675 5677 5678 5679